www.pogodaiklimat.ru
ПОГОДА на Устике
Время
(UTC), дата
10 8.10
11 8.10
12 8.10
13 8.10
15 8.10
16 8.10
17 8.10
18 8.10
06 9.10
07 9.10
08 9.10
09 9.10
10 9.10
11 9.10
12 9.10
13 9.10
14 9.10
15 9.10
16 9.10
17 9.10
18 9.10
06 10.10
07 10.10
08 10.10
09 10.10
10 10.10
11 10.10
12 10.10
13 10.10
14 10.10
15 10.10
16 10.10
17 10.10
18 10.10
06 11.10
07 11.10
08 11.10
09 11.10
10 11.10
11 11.10
12 11.10
13 11.10
14 11.10
15 11.10
16 11.10
17 11.10
18 11.10
06 12.10
07 12.10
08 12.10
09 12.10
10 12.10
11 12.10
12 12.10
13 12.10
14 12.10
15 12.10
16 12.10
17 12.10
18 12.10
06 13.10
07 13.10
08 13.10
09 13.10
10 13.10
11 13.10
12 13.10
13 13.10
14 13.10
15 13.10
16 13.10
17 13.10
18 13.10
06 14.10
07 14.10
08 14.10
09 14.10
10 14.10
11 14.10
12 14.10
13 14.10
14 14.10
15 14.10
16 14.10
17 14.10
18 14.10
06 15.10
07 15.10
08 15.10
Ветер
(напр.,м/с)
Видим. Явления Облачность Т
(С)
Тd
(С)
f
(%)
Тe
(С)
Тes
(С)
Комфортность P
(гПа)
Po
(гПа)
Тmin
(С)
Tmax
(С)
R
(мм)
R24
(мм)
S
(см)
С 5 20 км 3/0
[Ci fib]
+23.0 +16.1 65 +27 +32 душно 1015.7 987.8
С 4 20 км 3/0
[Ci fib]
+23.0 +15.8 64 +27 +33 душно 1015.5 987.6
нст 3 20 км 3/0
[Ci fib]
+23.4 +16.5 65 +28 +35 душно 1015.3 987.4
С 3 20 км 4/0
[Cs]
+23.0 +15.8 64 +27 +32 душно 1015.5 987.6
С 3 20 км 4/0
[Cs]
+23.2 +16.5 66 +28 +30 душно 1015.6 987.7
С 3 20 км 5/0
[Cs]
+22.2 +15.8 67 +26 +26 душно 1016.1 988.1
С 3 20 км 4/0
[Cs]
+21.0 -30.0 2 +20 +20 тепло 1017.2 989.0
С 3 20 км 5/0
[Cs]
+20.0 +15.2 74 +23 +23 комфорт 1017.9 989.6 +23.0
СВ 3 20 км 1/0
[Ac trans]
+21.0 +18.9 88 +26 +26 душно 1018.3 990.1 +18.8
С 2 20 км ясно +23.0 +20.7 87 +30 +32 очень
душно
1018.8 990.8
В 4 20 км 4/0
[Ci fib]
+24.4 +21.7 85 +31 +33 очень
душно
1019.4 991.5
ЮВ 4 20 км 4/0
[Cs]
+24.4 +21.1 82 +31 +35 очень
душно
1020.0 992.1
В 3 20 км 8/0
[As trans]
+24.0 +19.9 78 +29 +33 душно 1019.7 991.8
20 км 4/0
[Cs]
+25.0 +21.3 80 1018.9 991.1
В 2 20 км 4/0
[Cs]
+25.0 +21.3 80 +32 +40 очень
душно
1018.2 990.4
В 2 20 км 3/0
[Ci fib]
+25.0 +20.9 78 +31 +38 очень
душно
1017.8 990.0
В 3 20 км 3/0
[Ac trans]
+25.0 +23.1 89 +33 +37 очень
душно
1017.2 989.4
В 3 20 км 3/0
[Ci fib]
+24.2 +21.3 84 +31 +32 очень
душно
1017.1 989.3
СВ 2 20 км 3/0
[Cs]
+24.0 +21.1 84 +30 +31 очень
душно
1016.9 989.0
В 2 20 км 5/0
[Ac trans]
+22.0 +19.4 85 +27 +27 душно 1017.5 989.5
В 2 20 км 4/0
[As trans]
+17.0 +14.5 85 +17 +17 тепло 1018.0 989.4 +24.0
С 2 10 км 4/4 750 м
[Cu hum]
+20.8 +17.2 80 +25 +25 комфорт 1017.2 989.1 +20.8
С 2 20 км 4/4 600 м
[Cu hum]
+22.4 +18.8 80 +28 +29 душно 1017.3 989.3
20 км 4/4 750 м
[Cu hum]
+24.0 +20.3 80 1017.7 989.9
С 2 20 км 3/3 900 м
[Cu hum]
+25.2 +21.5 80 +32 +37 очень
душно
1017.9 990.2
С 2 20 км 3/3 900 м
[Cu hum]
+26.0 +22.3 80 +34 +41 очень
душно
1017.6 990.0
С 2 20 км 3/0
[Ci fib]
+26.0 +22.3 80 +34 +42 очень
душно
1017.2 989.6
С 2 20 км 3/0
[Ac trans]
+26.4 +21.6 75 +34 +41 очень
душно
1016.9 989.3
20 км ясно +26.0 +21.9 78 1016.9 989.3
20 км 3/3 900 м
[Cu hum]
+25.0 +21.7 82 1017.5 989.8
С 3 20 км ясно +21.0 +17.4 80 +25 +27 комфорт 1017.6 989.4
20 км ясно +22.0 +19.4 85 1017.6 989.5
С 2 20 км 3/0
[Ac trans]
+21.0 +18.6 86 +26 +26 душно 1018.2 990.0
С 2 20 км 3/0
[As trans]
+21.0 +18.9 88 +26 +26 душно 1018.6 990.4 +26.0
С 2 20 км 3/3 600 м
[Cu hum]
+19.8 +16.8 83 +23 +23 комфорт 1021.5 993.1 +18.8
С 2 20 км 3/3 600 м
[Cu hum]
+22.0 +18.6 81 +27 +28 душно 1022.4 994.2
С 2 20 км 4/4 750 м
[]
+23.0 +19.6 81 +30 +32 очень
душно
1022.6 994.5
СВ 2 20 км 4/4 750 м
[Cu hum]
+23.2 +19.6 80 +30 +34 очень
душно
1023.2 995.1
СВ 2 20 км 3/3 750 м
[Cu hum]
+23.0 +18.1 74 +29 +35 очень
душно
1023.4 995.2
В 2 20 км 3/3 750 м
[Cu hum]
+24.2 +19.5 75 +29 +36 душно 1023.0 995.0
В 3 20 км 3/3 750 м
[Cu hum]
+24.0 +19.3 75 +29 +35 душно 1022.7 994.7
20 км 3/3 750 м
[Cu hum]
+26.0 +21.2 75 1022.1 994.3
СВ 2 20 км ясно +24.0 +20.1 79 +30 +34 очень
душно
1022.2 994.2
В 2 20 км ясно +22.2 +18.6 80 +27 +30 душно 1022.6 994.4
С 2 20 км ясно +22.0 +19.0 83 +27 +28 душно 1022.4 994.2
СВ 2 20 км ясно +21.0 +18.4 85 +26 +26 душно 1022.6 994.3
СВ 2 20 км 1/1 600 м
[Cu hum]
+20.6 +18.2 86 +25 +25 комфорт 1022.7 994.4 +24.8
В 4 20 км 6/0 2000 м
[As trans]
+20.4 +17.8 85 +24 +24 комфорт 1023.8 995.4 +19.8
ЮВ 4 20 км 8/0
[As trans]
+21.8 +19.2 85 +27 +27 душно 1023.9 995.7
В 5 20 км 8/0
[As trans]
+22.2 +19.2 83 +28 +29 душно 1024.2 996.0
ЮВ 3 20 км 9/4 900 м
[Cu hum As trans]
+23.0 +20.3 85 +30 +32 очень
душно
1024.7 996.6
ЮВ 4 20 км 9/4 750 м
[Cu hum As trans]
+23.2 +20.0 82 +30 +32 очень
душно
1024.7 996.6
ЮВ 5 20 км 8/3 750 м
[Cu hum As trans]
+23.0 +20.2 84 +30 +32 очень
душно
1024.4 996.3
ЮВ 4 20 км 5/0
[As trans]
+23.6 +20.0 80 +29 +34 душно 1024.0 995.9
ЮВ 4 20 км 4/0
[As trans]
+24.2 +20.9 82 +30 +34 очень
душно
1023.6 995.6
ЮВ 4 15 км ясно +24.0 +20.5 81 +30 +33 очень
душно
1023.7 995.6
В 4 10 км ясно +24.0 +20.7 82 +30 +31 очень
душно
1023.5 995.4
ЮВ 3 15 км 3/3 1200 м
[Cu hum]
+22.0 +19.4 85 +27 +28 душно 1023.6 995.4
ЮВ 4 15 км 4/4 1200 м
[Cu hum]
+21.4 +18.8 85 +26 +26 душно 1024.0 995.7
В 3 20 км 3/3 900 м
[Cu hum]
+26.0 +23.5 86 +35 +35 очень
душно
1023.9 996.0 +25.0
ЮВ 3 20 км 5/4 500 м
[Cu med, cong Ac As]
+20.4 +17.1 81 +24 +24 комфорт 1023.8 995.4 +20.0
ЮВ 4 20 км 4/3 500 м
[Cu med, cong Ac trans]
+22.4 +18.9 81 +28 +29 душно 1024.1 995.9
ЮВ 4 25 км 4/3 500 м
[Cu med, cong Ac trans]
+22.6 +18.6 78 +28 +30 душно 1024.2 996.0
ЮВ 4 20 км 4/3 500 м
[Cu med, cong Ci sp]
+24.2 +20.5 80 +30 +33 очень
душно
1024.4 996.3
25 км 5/4 500 м
[Cu med, cong Ac trans]
+23.8 +20.1 80 1024.5 996.4
ЮВ 4 25 км 5/4 500 м
[Cu med, cong Ac trans]
+23.8 +19.8 78 +29 +33 душно 1024.1 996.0
В 5 20 км 3/3 500 м
[Cu med, cong]
+23.4 +19.7 80 +30 +34 очень
душно
1023.2 995.1
В 4 25 км 4/3 500 м
[Cu med, cong Ac trans]
+24.0 +20.6 81 +30 +33 очень
душно
1022.9 994.9
В 4 20 км 5/4 500 м
[Cu med, cong Ac trans]
+23.6 +20.5 83 +29 +31 душно 1022.8 994.8
ЮВ 5 20 км 4/1 500 м
[Cu med, cong Ci fib]
+23.6 +20.8 84 +29 +30 душно 1022.5 994.5
ЮВ 5 20 км 5/3 500 м
[Cu med, cong Ac As Ci sp]
+21.4 +19.1 87 +26 +26 душно 1022.7 994.5
ЮВ 6 20 км 6/4 500 м
[Cu med, cong Ac trans]
+21.0 +18.7 87 +25 +25 комфорт 1023.1 994.8
ЮВ 5 10 км 5/4 500 м
[Cu med, cong Ac trans]
+21.0 +18.7 87 +25 +25 комфорт 1023.3 995.0 +25.6
ЮВ 5 20 км 5/4 500 м
[Cu med, cong Ac trans Ci fib]
+21.0 +18.0 83 +25 +25 комфорт 1022.0 993.8 +20.6
ЮВ 5 20 км 5/4 500 м
[Cu med, cong Ac trans]
+22.6 +19.4 82 +29 +29 очень
душно
1022.4 994.2
Ю 5 20 км 5/4 500 м
[Cu med, cong Ac trans]
+22.4 +19.5 84 +28 +30 душно 1022.4 994.3
Ю 4 20 км 4/3 500 м
[Cu med, cong Ac trans]
+23.6 +20.5 83 +29 +32 душно 1022.4 994.4
ЮВ 3 20 км 4/0
[Ci fib]
+23.6 +20.6 83 +29 +36 душно 1022.3 994.3
ЮВ 4 25 км 4/1 500 м
[Cu med, cong Ci fib]
+24.4 +21.0 81 +31 +37 очень
душно
1021.6 993.7
ЮВ 4 20 км 4/0
[Ci fib]
+23.6 +19.9 80 +29 +34 душно 1021.3 993.3
В 2 20 км н/о +25.0 +21.3 80 +32 +32 очень
душно
1020.6 992.7
В 2 25 км 6/0
[Ac trans Ci sp]
+23.8 +21.3 86 +30 +34 очень
душно
1020.3 992.3
В 3 20 км 5/1 500 м
[Cu med, cong Ac trans Ci sp]
+23.4 +17.8 71 +29 +30 душно 1020.1 992.1
ЮВ 4 20 км 5/1 500 м
[Cu med, cong Ac trans Ci fib]
+21.8 +15.0 65 +25 +25 комфорт 1020.3 992.1
ЮВ 5 18 км 5/1 500 м
[Cu med, cong Ac trans Ci fib]
+21.2 +18.9 87 +26 +26 душно 1020.5 992.2
ЮВ 6 10 км 5/3 500 м
[Cu med, cong Ac trans Ci fib]
+20.8 +18.2 85 +25 +25 комфорт 1020.6 992.4 +25.6
нст 3 20 км 5/4 500 м
[Cu med, cong Ac trans]
+21.2 +18.3 84 +25 +25 комфорт 1018.1 990.0 +20.2
ЮВ 4 20 км 4/3 500 м
[Cu med, cong Ac trans]
+22.8 +19.7 83 +29 +30 очень
душно
1018.1 990.1
ЮВ 4 20 км 4/3 500 м
[Cu med, cong]
+23.6 +20.5 83 +29 +31 душно 1018.2 990.3
Местоположение метеостанции Устика (Италия): широта 38.70 долгота 13.18 высота над уровнем моря 251 м.
В архиве по умолчанию представлена погода на Устике за последнюю неделю. Архивные данные за месяц целиком и за предыдущие месяцы, начиная с января 2011 года, Вы можете получить, выбрав интересующий диапазон дат из раскрывающегося списка и нажав кнопку "Найти!".
*Определитесь, кто Вы:
Внимание! Время в таблицах - всемирное. Для получения местного времени необходимо прибавить поправку, которая равна 1 ч.
Смотрите также архив погоды в соседних городах и на ближайших метеорологических станциях:
Партнеры нашего сайта:      
Пояснения к столбцам:
  • Ветер - указаны скорость ветра в м/с - средняя за 10 мин, порывы в срок и между сроками (в фигурных скобках) и направление, откуда дует ветер: С - северный,
  • СВ - северо-восточный, В - восточный, ЮВ - юго-восточный, Ю - южный, ЮЗ - юго-западный, З - западный, СЗ - северо-западный.
  • Видимость - горизонтальная дальность видимости в метрах или километрах. При видимости от 1 до 10 км при отсутствии осадков обычно наблюдается дымка, при ухудшении видимости до 1 км и менее - туман. В сухую погоду видимость может ухудшаться дымом, пылью или мглою.
  • Явления - указаны атмосферные явления, наблюдавшиеся в срок или в последний час перед сроком; фигурными скобками обозначены явления, наблюдавшиеся между сроками (за 1-3 часа до срока); квадратными скобками обозначены град или гололедные отложения с указанием их диаметра в мм.
  • Облачность - указаны через наклонную черту общая и нижняя облачность в баллах и высота нижней границы облаков в метрах; квадратными скобками обозначены формы облаков: Ci - перистые, Cs - перисто-слоистые, Cc - перисто-кучевые, Ac - высококучевые, As - высокослоистые, Sc - слоисто-кучевые, Ns - слоисто-дождевые, Cu - кучевые, Cb - кучево-дождевые. Подробнее классификацию облаков см. в Атласе облаков (PDF).
  • T - Температура воздуха - температура, измеренная на высоте 2 м над землей.
  • Td - Температура точки росы - температура, при понижении до которой содержащийся в воздухе водяной пар достигнет насыщения.
  • f - Относительная влажность воздуха - влажноcть воздуха, измеренная на высоте 2 м над землей.
  • Te - Эффективная температура - температура, которую ощущает одетый по сезону человек в тени. Характеристика душности погоды. При расчете учитывается влияние влажности воздуха и скорости ветра на теплоощущения человека.
  • Tes - Эффективная температура на солнце - температура, которую ощущает человек, с поправкой на солнечный нагрев. Характеристика знойности погоды. Зависит от высоты солнца над горизонтом, облачности и скорости ветра. Ночью, в пасмурную погоду, а также при ветре 12 м/с и более поправка равна нулю.
  • P - Атмосферное давление - приведенное к уровню моря атмосферное давление.
  • Po - Атмосферное давление - измеренное на уровне метеостанции атмосферное давление.
  • Tmin - Минимальная температура - минимум температуры воздуха на высоте 2 м над землей.
  • Tmax - Максимальная температура - максимум температуры воздуха на высоте 2 м над землей.
  • R - Количество осадков - Количество выпавших осадков за период времени, мм. При наведении курсора мыши на число - период времени, за который выпало указанное количество осадков.
  • R24 - Количество осадков - Количество выпавших осадков за 24 часа, мм.
  • S - Снежный покров - Высота снежного покрова, см. При наведении курсора мыши на число - состояние снежного покрова и степень покрытия местности в баллах.